SL-12 R/B(AUX MOTOR), 32281

Orbit data source: Space-Track

SL-12 R/B(AUX MOTOR), 32281 is space debris in HEO originally from a launch on Fri, 26 Oct 2007 UTC launched from the Tyuratam Missile And Space Complex (TTMTR). Debris objects in space refer to the collection of defunct objects orbiting the Earth. Examples of debris include non-operational satellites, rocket bodies, and fragments generated from explosions, collisions, or faulty payload assembly.

Loading next visibility...
Identifier
32281, 2007-052G
Orbit
HEO
Country
Flag of CISCIS
Related business
Manufacturer
RKKE
Mission
Spacecraft
Bus & Motor
SOZ, Unknown motor
Mass
56 kg wet, 56 kg dry
Launch date (UTC)
2007-10-26 (18 years ago)
Launch vehicle
Unknown
Launch site
Tyuratam Missile And Space Complex (TTMTR)
Object type
Payload
Rocket body
Debris
Shape & HBR
Cyl, 0.6 m
Radar Cross Section
0.660 m², Medium (>0.1 m² and < 1m²)

Expand to show TLE details & history
Last TLE update: 2 days ago

TLE from 2 days ago
0 SL-12 R/B(AUX MOTOR)
1 32281U 07052G   25256.97060912  .00000065  00000-0  37435-3 0  9990
2 32281  65.3380  37.5935 5677097 215.9611  87.6300  4.23702429276216
Epoch: 2025-09-13T23:17Z
TLE epoch observation values (Epoch: 2025-09-13T23:17:40.627Z)
Latitude
0.00005°
Longitude
54.96587°
Altitude
13,868.742 km
Speed
3.83 km/s
True Right ascension
02h 30m 19s
True Declination
0° 00' 00"
Sunlit
Object was in daylight at epoch
Visualization orbit readout
Latitude
Unknown
Longitude
Unknown
Altitude
Unknown
Speed
Unknown
Apparent Right ascension
Unknown
Apparent Declination
Unknown
Sunlit
N/A
Visualization observer readout
Local Sidereal Time
17:56:58
Azimuth
Unknown
Elevation
Unknown
Doppler factor
Unknown
Orbital elements
Apogee altitude
18,910.708 km
Perigee altitude
595.171 km
Semi-major axis
16,131.076 km
Eccentricity
0.56771
Inclination
65.338°
RAAN
37.5935°
Arg. of periapsis
215.9611°
True anomaly
144.12225°
Mean anomaly
87.63°
Eccentric anomaly
116.69125°
Mean motion
1.05937 °/min
Orbital period
339.82 mins
BSTAR
0.00037435
Loading maneuver chart data...
Computing Atmospheric mass density...
Loading historical data...
Loading historical data...
Loading historical data...
Loading historical data...
Loading historical data...
Loading historical data...
Loading historical data...

Documentation

Showing up to 5 results
|